Regional Weather Roundup
Issued by NWS

Home | Current Version | Previous Version | Text Only | Print | Product List | Glossary Off
Versions: 1 2 3 4 5 6 7 8 9 10 11 12 13 14 15 16 17 18 19 20 21 22 23 24 25 26 27 28 29 30 31 32 33 34 35 36 37 38 39 40 41 42 43 44 45 46 47 48 49 50

000
ASUS43 KOAX 230710
RWRNE

WEATHER ROUNDUP FOR NEBRASKA
NATIONAL WEATHER SERVICE OMAHA NE
200 AM CDT THU MAR 23 2017

NOTES: SATELLITE DATA IS BEING USED TO AUGMENT CLOUD COVER ABOVE
       12000 FEET.
       "FAIR" INDICATES FEW OR NO CLOUDS BELOW 12,000 FEET WITH NO
       SIGNIFICANT WEATHER AND/OR OBSTRUCTIONS TO VISIBILITY.

  * THESE STATIONS DO NOT REPORT WEATHER SUCH AS RAIN...SNOW OR FOG.

NEZ001>004-019>022-054>056-230800-
NEBRASKA PANHANDLE

CITY           SKY/WX    TMP DP  RH WIND       PRES   REMARKS
SCOTTSBLUFF    CLOUDY    48  36  63 E15       29.77F
ALLIANCE       CLOUDY    43  33  68 S20G25    29.79F
CHADRON        CLOUDY    53  37  54 S17G26    29.71F
KIMBALL        CLOUDY    46  39  78 SE12      29.79F
SIDNEY         CLOUDY    43  35  73 SE8       29.82F
$$

NEZ057>060-069>072-079>082-230800-
SOUTHWEST NEBRASKA

CITY           SKY/WX    TMP DP  RH WIND       PRES   REMARKS
NORTH PLATTE   PTCLDY    45  34  65 SE10      29.91F
IMPERIAL       CLOUDY    40  34  79 SE13      29.85F WCI  32
LEXINGTON      CLOUDY    45  34  67 SE12      29.95F
MCCOOK         CLOUDY    42  35  76 SE10      29.91F
OGALLALA       PTCLDY    44  34  69 SE8       29.87F
$$

NEZ005>010-023>029-035>040-094-230800-
NORTH CENTRAL NEBRASKA

CITY           SKY/WX    TMP DP  RH WIND       PRES   REMARKS
VALENTINE      PTCLDY    43  29  57 S16G26    29.87F
AINSWORTH      CLOUDY    41  29  64 S15       29.89F
BROKEN BOW     MOCLDY    44  32  62 S13       29.94F
O`NEILL        PTCLDY    46  28  49 S14       29.95F
ORD            PTCLDY    47  27  45 SE13      29.96F
THEDFORD       CLOUDY    43  31  63 S15G21    29.90F
$$

NEZ041-046>049-061>064-073>077-083>087-230800-
SOUTH CENTRAL NEBRASKA

CITY           SKY/WX    TMP DP  RH WIND       PRES   REMARKS
GRAND ISLAND   CLOUDY    48  28  46 S15       30.01F
AURORA         CLOUDY    49  27  42 SE13G18   30.02F
HASTINGS       CLOUDY    49  28  44 SE13      30.01F
HEBRON         CLOUDY    50  29  44 SE9       30.04F
HOLDREGE       PTCLDY    43  29  58 SE10      29.97S
KEARNEY *      CLEAR     45  27  49 SE13      29.99F
YORK           CLOUDY    48  28  46 SE14G20   30.04F
$$

NEZ011>018-030>034-042>045-230800-
NORTHEAST NEBRASKA

CITY           SKY/WX    TMP DP  RH WIND       PRES   REMARKS
NORFOLK        CLOUDY    45  27  49 SE12      30.03F
ALBION         CLOUDY    50  26  39 S15       30.01F
BLAIR          CLOUDY    45  25  46 SE15G22   30.10S
FREMONT        CLOUDY    46  27  47 SE10      30.10S
TEKAMAH        CLOUDY    44  25  47 SE13      30.12S
WAYNE          CLOUDY    43  29  57 SE16      30.06F
$$

NEZ050>053-065>068-078-088>093-230800-
SOUTHEAST NEBRASKA

CITY           SKY/WX    TMP DP  RH WIND       PRES   REMARKS
LINCOLN        CLOUDY    49  27  42 SE12      30.10S
OMAHA EPPLEY   CLOUDY    45  23  42 SE18      30.12F
BEATRICE       CLOUDY    51  28  41 SE15      30.07F
FALLS CITY     CLOUDY    49  24  37 SE10      30.12F
NEBRASKA CITY  CLOUDY    47  17  29 SE14G21   30.11F
PLATTSMOUTH    CLOUDY    45  20  37 SE12      30.11F
$$

NEZ044-045-051>053-067-230800-
OMAHA AREA

CITY           SKY/WX    TMP DP  RH WIND       PRES   REMARKS
OMAHA EPPLEY   CLOUDY    45  23  42 SE18      30.12F
BLAIR          CLOUDY    45  25  46 SE15G22   30.10S
FREMONT        CLOUDY    46  27  47 SE10      30.10S
MILLARD        CLOUDY    47  28  47 SE10      30.11F
OFFUTT AFB     CLOUDY    45  23  41 SE14      30.12F
PLATTSMOUTH    CLOUDY    45  20  37 SE12      30.11F
WAHOO          CLOUDY    47  25  43 SE14      30.09F
$$



USA.gov is the U.S. government's official web portal to all federal, state and local government web resources and services.